Content
SEND FEEDBACK

Daily
Averages
Monthly
Summary
United States of America

WEED, CALIFORNIA


Home > North America > United States > California
Elevation: 3664 feet     Latitude: 41 25N     Longitude: 122 23W

WEATHER
 
SELECT A DAY
Number of Records: 231,359;   Date Range: 1/1/95 - 7/29/14
 
SHARE

PRINT THIS DATA

[ ← Previous Day ]
WEATHER ALMANAC - DECEMBER 8, 2013
[ Next Day → ]
[ °C ]   °F
Weather ElementAverageHighLow
Temperature10.8 °F21.9 °F (12:56 pm)1 °F (4:56 am)
Dewpoint2.3 °F9 °F (12:56 pm)-6 °F (4:56 am)
Humidity69 %76 % (1:56 am)58 % (12:56 pm)
Barometer30.48 in30.59 in (10:56 pm)30.37 in (2:56 am)
Wind Speed3.4 mph8.1 mph (10:56 am)
Wind Gust18.4 mph (2:56 pm)
Weather ElementAverage
Visibility9 mi
Wind DirectionENE (74.3 °)

Weather ElementTotal
Precipitation---
Heating Degree Days53.6 (Base 65)
Averaged from 23 records on December 8, 2013
WEATHER CONDITIONS BREAKOUT
WIND DIRECTION BREAKOUT
WEATHER BY HOUR - DECEMBER 8, 2013
[ °C ]   °F
Local TimeTemperatureDewpointHumidityBarometerVisibilityWind DirectionWind SpeedGust SpeedPrecipitationEventsConditions
1:56 AM1.9 °F-4.0 °F76 %30.38 in4.0 miCalmHaze
2:56 AM1.9 °F-5.1 °F72 %30.37 in5.0 miCalmHaze
3:56 AM1.9 °F-5.1 °F72 %30.39 in10.0 miNE (50°)3.5 mphClear
4:56 AM1.0 °F-6.0 °F72 %30.41 in10.0 miCalmClear
5:56 AM1.0 °F-6.0 °F72 %30.43 in10.0 miNNE (20°)4.6 mphClear
6:56 AM8.1 °F1.0 °F73 %30.43 in10.0 miWNW (300°)5.8 mphClear
7:56 AM1.9 °F-5.1 °F72 %30.48 in8.0 miCalmClear
8:56 AM9.0 °F1.0 °F70 %30.48 in8.0 miCalmClear
9:56 AM12.9 °F6.1 °F74 %30.49 in10.0 miWNW (290°)6.9 mphClear
10:56 AM16.0 °F7.0 °F68 %30.48 in10.0 miNW (320°)8.1 mphClear
11:56 AM19.0 °F8.1 °F62 %30.45 in10.0 miVariable5.8 mphClear
12:56 PM21.9 °F9.0 °F58 %30.44 in10.0 miWNW (290°)8.1 mphClear
1:56 PM21.9 °F9.0 °F58 %30.43 in10.0 miWNW (300°)8.1 mphClear
2:56 PM19.0 °F8.1 °F62 %30.47 in10.0 miVariable6.9 mph18.4 mphClear
3:56 PM18.0 °F7.0 °F62 %30.47 in10.0 miCalmClear
4:56 PM16.0 °F6.1 °F65 %30.49 in10.0 miVariable3.5 mphClear
5:56 PM15.1 °F6.1 °F68 %30.51 in10.0 miCalmClear
6:56 PM12.9 °F5.0 °F71 %30.51 in9.0 miCalmClear
7:56 PM12.9 °F5.0 °F71 %30.55 in10.0 miVariable3.5 mphClear
8:56 PM12.9 °F5.0 °F71 %30.55 in10.0 miNorth (10°)3.5 mphClear
9:56 PM9.0 °F1.0 °F70 %30.58 in7.0 miNE (40°)3.5 mphClear
10:56 PM7.0 °F0.0 °F73 %30.59 in9.0 miNE (50°)3.5 mphClear
11:56 PM6.1 °F0.0 °F76 %30.59 in6.0 miNE (40°)3.5 mphHaze
Hourly data recorded from KMHS, located miles away from Weed, California







STORIES FROM OUR PARTNERS